Flag for U.S.A. Weather past 2 weeks in Victorville, California, U.S.A.

28 °F


Feels Like: 28 °F
Forecast: 23 / 52 °F
Wind: No wind

Location: George Air Force Base / Victorvi

Current Time: Nov 30, 2015 at 12:13:43 AM

Latest Report: Nov 29, 2015 at 11:15 PM

Visibility: 10 mi

Pressure: 30.21 "Hg (27.21 "Hg at 830m altitude)

Humidity: 40%

Dew point: 7 °F

Location of VictorvilleLocation

Historic Weather in Victorville — Graph


Victorville temperature yesterday

Maximum temperature yesterday: 48 °F (at 12:15 PM)
Minimum temperature yesterday: 28 °F (at 4:55 AM)
Average temperature yesterday: 37 °F

Past Weeks' High & Low Weather Summary

High73 °F (Nov 20, 1:15 PM)87% (Nov 15, 1:55 PM)30.30 "Hg (Nov 15, 1:55 PM)
Low23 °F (Nov 28, 3:55 AM)9% (Nov 22, 3:55 PM)29.78 "Hg (Nov 25, 12:55 AM)
Average46 °F38%30.04 "Hg
* Reported Nov 14 10:15 PM — Nov 29 10:55 PM, Victorville, Weather by CustomWeather, © 2015

Note: Actual official high and low records may vary slightly from our data, if they occured in-between our weather recording intervals... More about our weather records


Victorville weather history for previous 24 hours

Time TempWeatherWind HumidityBarometerVisibility
10:55 PM
Sun, Nov 29
30 °FChilly.6 mph37%30.21 "Hg10 mi
10:35 PM28 °FChilly.No wind37%30.20 "Hg10 mi
9:55 PM28 °FChilly.No wind34%30.21 "Hg10 mi
9:15 PM30 °FClear.No wind31%30.20 "Hg10 mi
8:55 PM34 °FClear.No wind29%30.20 "Hg10 mi
8:15 PM32 °FClear.No wind29%30.19 "Hg10 mi
7:35 PM34 °FClear.No wind29%30.17 "Hg10 mi
7:15 PM32 °FClear.No wind32%30.17 "Hg10 mi
6:55 PM39 °FClear.No wind28%30.17 "Hg10 mi
6:15 PM39 °FClear.No wind26%30.16 "Hg10 mi
4:15 PM46 °FSunny.No wind18%30.14 "Hg10 mi
3:55 PM48 °FSunny.No wind15%30.14 "Hg10 mi
2:55 PM48 °FSunny.5 mph17%30.13 "Hg10 mi
2:35 PM48 °FSunny.No wind17%30.13 "Hg10 mi
2:15 PM48 °FSunny.No wind18%30.13 "Hg10 mi
1:55 PM48 °FSunny.No wind17%30.13 "Hg10 mi
1:15 PM48 °FSunny.No wind18%30.14 "Hg10 mi
12:55 PM48 °FSunny.No wind20%30.14 "Hg10 mi
12:35 PM46 °FSunny.No wind21%30.15 "Hg10 mi
12:15 PM48 °FSunny.3 mph20%30.15 "Hg10 mi
11:55 AM46 °FSunny.No wind21%30.16 "Hg10 mi
11:35 AM46 °FSunny.No wind21%30.17 "Hg10 mi
11:15 AM46 °FSunny.No wind21%30.18 "Hg10 mi
10:55 AM46 °FSunny.No wind23%30.19 "Hg10 mi
10:35 AM45 °FSunny.No wind25%30.19 "Hg10 mi
10:15 AM43 °FSunny.No wind26%30.19 "Hg10 mi
9:55 AM43 °FSunny.No wind26%30.19 "Hg10 mi
9:35 AM41 °FSunny.No wind28%30.19 "Hg10 mi
9:15 AM39 °FSunny.No wind30%30.19 "Hg10 mi
8:55 AM37 °FSunny.No wind33%30.19 "Hg10 mi
8:35 AM36 °FSunny.No wind35%30.18 "Hg10 mi
8:15 AM36 °FSunny.No wind35%30.18 "Hg10 mi
7:55 AM34 °FSunny.No wind38%30.17 "Hg10 mi
7:35 AM30 °FSunny.No wind43%30.16 "Hg10 mi
7:15 AM32 °FChilly.No wind40%30.16 "Hg10 mi
6:55 AM30 °FSunny.No wind43%30.15 "Hg10 mi
6:35 AM28 °FClear.No wind47%30.15 "Hg10 mi
6:15 AM30 °FChilly.No wind43%30.14 "Hg10 mi
5:55 AM30 °FChilly.No wind43%30.13 "Hg10 mi
5:35 AM30 °FChilly.No wind43%30.14 "Hg10 mi
5:15 AM30 °FChilly.No wind43%30.13 "Hg10 mi
4:55 AM28 °FClear.No wind47%30.13 "Hg10 mi
4:35 AM30 °FClear.No wind43%30.13 "Hg10 mi
4:15 AM30 °FClear.No wind43%30.12 "Hg10 mi
3:55 AM30 °FClear.No wind43%30.13 "Hg10 mi
3:35 AM30 °FClear.No wind43%30.12 "Hg10 mi
3:15 AM30 °FClear.No wind43%30.12 "Hg10 mi
2:55 AM34 °FClear.No wind41%30.13 "Hg10 mi
2:35 AM36 °FPassing clouds.No wind38%30.13 "Hg10 mi
2:15 AM36 °FPassing clouds.No wind38%30.13 "Hg10 mi
1:55 AM36 °FOvercast.No wind38%30.13 "Hg10 mi
1:35 AM36 °FOvercast.No wind38%30.13 "Hg10 mi
1:15 AM36 °FPassing clouds.No wind38%30.13 "Hg10 mi
12:55 AM36 °FPassing clouds.No wind38%30.12 "Hg10 mi
12:35 AM36 °FClear.No wind38%30.12 "Hg10 mi
12:15 AM36 °FPassing clouds.No wind38%30.12 "Hg10 mi
Weather by CustomWeather, © 2015

See weather overviewHow to use our weather pages